Regional Weather Roundup
Issued by NWS Kansas City/Pleasant Hill, MO

Home | Current Version | Previous Version | Graphics & Text | Print | Product List | Glossary Off
Versions: 1 2 3 4 5 6 7 8 9 10 11 12 13 14 15 16 17 18 19 20 21 22 23 24 25 26 27 28 29 30 31 32 33 34 35 36 37 38 39 40 41 42 43 44 45 46 47 48 49 50

000
ASUS43 KEAX 230810
RWREAX

WEATHER ROUNDUP FOR EASTERN KANSAS AND NORTHWEST MISSOURI
NATIONAL WEATHER SERVICE KANSAS CITY/PLEASANT HILL MO
300 AM CDT THU OCT 23 2014

KSZ040-057-103>105-MOZ028-029-037-043-230900-
...KANSAS CITY METROPOLITAN AREA...

CITY           SKY/WX    TMP DP  RH WIND       PRES   REMARKS
K.C. INTL      CLOUDY    60  54  80 SW3       30.11R
K.C. DOWNTOWN  CLOUDY    63  51  65 SW8       30.12R
LEES SUMMIT    CLOUDY    58  49  72 S9        30.12R
OLATHE - IXD   CLOUDY    59  52  77 S8        30.12R
OLATHE - OJC   LGT RAIN  59  53  80 S6        30.11R
LAWRENCE       RAIN      59  57  93 SE3       30.11R FOG

$$

MOZ001>008-011>017-020>025-030>033-038>040-044>046-053-054-230900-
...NORTHERN AND CENTRAL MISSOURI...

CITY           SKY/WX    TMP DP  RH WIND       PRES   REMARKS
ST. JOSEPH     RAIN      58  56  93 S5        30.11S FOG
MOSBY          CLOUDY    55  48  76 CALM      30.11R
WHITEMAN AFB   MOCLDY    55  48  77 S8        30.13S
CLINTON        CLOUDY    55  48  76 SE3       30.15S
SEDALIA        MOCLDY    52  47  83 S10       30.16S
WARSAW         NOT AVBL
MARSHALL       MOCLDY    52  46  82 SE6       30.15S
CHILLICOTHE      N/A     55  44  66 S7        30.13S
MOBERLY        PTCLDY    48  39  71 SE6       30.16S
KIRKSVILLE     MOCLDY    47  43  86 S8        30.15S

$$

MOZ041-047>049-056>058-063>065-088>090-097-230900-
...EASTERN AND SOUTHERN MISSOURI...

CITY           SKY/WX    TMP DP  RH WIND       PRES   REMARKS
ST. LOUIS INTL PTCLDY    46  39  76 CALM      30.22S
SPIRIT OF STL  CLEAR     37  36  93 CALM      30.21S FOG
COLUMBIA       CLEAR     46  41  82 SE8       30.17S
JEFFERSON CITY PTCLDY    46  41  82 E5        30.18S
MEXICO         CLEAR     46  46 100 SE6       30.17F
HANNIBAL       PTCLDY    48  37  66 SE9       30.17F
ROLLA          CLEAR     43  38  82 SE7       30.17S
LEBANON        PTCLDY    48  43  81 S7        30.18S
OSAGE BEACH    CLEAR     46  41  81 SE5       30.18S
SPRINGFIELD    MOCLDY    53  44  71 S12       30.16R
BRANSON        MOCLDY    48  45  87 SE3       30.18S
NEVADA         CLOUDY    55  50  82 S8        30.15R
JOPLIN         CLOUDY    59  51  75 SE5       30.13F
WEST PLAINS    CLEAR     39  35  86 CALM      30.20S

$$

IAZ060-094-KSZ022-034>040-054-083-096-NEZ052-066-093-230900-
...KANSAS...SOUTHEAST NEBRASKA AND IOWA...

CITY           SKY/WX    TMP DP  RH WIND       PRES   REMARKS
TOPEKA         RAIN      63  62  97 S8        30.10R FOG
MANHATTAN      LGT RAIN  62  61  96 CALM      30.07S FOG
EMPORIA        LGT RAIN  62  60  93 S5        30.10R
CHANUTE        CLOUDY    63  57  81 S6        30.12S
WICHITA        CLOUDY    62  57  83 S3        30.09R
OMAHA          CLOUDY    63  59  87 S10       30.03R
LINCOLN        CLOUDY    62  58  86 SW5       30.05
FALLS CITY     CLOUDY    61  60  97 SE6       30.07R FOG
LAMONI         RAIN      54  48  80 S13       30.12R
DES MOINES     LGT RAIN  54  49  83 S8        30.09F

$$




USA.gov is the U.S. government's official web portal to all federal, state and local government web resources and services.